START_TIME,STEP,MOV.,A46,t_acc.,A13,t_acc.,M47,t_acc.,A17,t_acc.,A28,t_acc.,M38,t_acc.
1979-07-27 09:00:24.770 ,0,0,,0,26.,4.8,4.,4.8,,0,0.,4.8,7.,4.8
1979-07-27 09:00:29.570 ,0,0,,0,28.,4.8,4.,4.8,,0,0.,4.8,11.,4.8
1979-07-27 09:00:34.370 ,0,0,,0,26.,4.8,1.,4.8,,0,0.,4.8,11.,4.8
1979-07-27 09:00:39.170 ,0,0,,0,0.,4.8,0.,4.8,,0,0.,4.8,7.,4.8
1979-07-27 09:00:43.970 ,0,0,,0,0.,4.8,0.,4.8,,0,0.,4.8,14.,4.8
1979-07-27 09:00:48.770 ,0,0,,0,0.,4.8,0.,4.8,,0,0.,4.8,14.,4.8
1979-07-27 09:00:53.570 ,0,0,,0,0.,4.8,0.,4.8,,0,0.,4.8,15.,4.8
1979-07-27 09:00:58.370 ,0,0,,0,1.,4.8,0.,4.8,,0,0.,4.8,10.,4.8
1979-07-27 09:01:03.170 ,0,0,,0,29.,4.8,1.,4.8,,0,0.,4.8,12.,4.8
1979-07-27 09:01:07.970 ,0,0,,0,24.,4.8,2.,4.8,,0,0.,4.8,13.,4.8
1979-07-27 09:01:12.770 ,0,0,,0,25.,4.8,4.,4.8,,0,0.,4.8,10.,4.8
1979-07-27 09:01:17.570 ,0,0,,0,18.,4.8,1.,4.8,,0,0.,4.8,16.,4.8
1979-07-27 09:01:22.370 ,0,0,,0,32.,4.8,7.,4.8,,0,0.,4.8,18.,4.8
1979-07-27 09:01:27.170 ,0,0,,0,0.,4.8,0.,4.8,,0,0.,4.8,12.,4.8
1979-07-27 09:01:31.970 ,0,0,,0,0.,4.8,0.,4.8,,0,0.,4.8,14.,4.8
1979-07-27 09:01:36.770 ,1,0,,0,0.,4.8,0.,4.8,,0,0.,4.8,9.,4.8
1979-07-27 09:01:41.570 ,1,0,,0,0.,4.8,0.,4.8,,0,0.,4.8,4.,4.8
1979-07-27 09:01:46.370 ,1,0,,0,1.,4.8,0.,4.8,,0,0.,4.8,3.,4.8
1979-07-27 09:01:51.170 ,1,0,,0,8.,4.8,1.,4.8,,0,0.,4.8,2.,4.8
1979-07-27 09:01:55.970 ,1,0,,0,10.,4.8,2.,4.8,,0,0.,4.8,1.,4.8
1979-07-27 09:02:00.770 ,1,0,,0,9.,4.8,1.,4.8,,0,0.,4.8,6.,4.8
1979-07-27 09:02:05.570 ,1,0,,0,19.,4.8,1.,4.8,,0,0.,4.8,3.,4.8
1979-07-27 09:02:10.370 ,1,0,,0,7.,4.8,1.,4.8,,0,0.,4.8,0.,4.8
1979-07-27 09:02:15.170 ,1,0,,0,0.,4.8,0.,4.8,,0,0.,4.8,3.,4.8
1979-07-27 09:02:19.970 ,1,0,,0,0.,4.8,0.,4.8,,0,0.,4.8,5.,4.8
1979-07-27 09:02:24.770 ,2,0,,0,0.,4.8,0.,4.8,,0,0.,4.8,1.,4.8
1979-07-27 09:02:29.570 ,2,0,,0,0.,4.8,0.,4.8,,0,0.,4.8,0.,4.8
1979-07-27 09:02:34.370 ,2,0,,0,0.,4.8,0.,4.8,,0,1.,4.8,0.,4.8
1979-07-27 09:02:39.170 ,2,0,,0,2.,4.8,0.,4.8,,0,0.,4.8,0.,4.8
1979-07-27 09:02:43.970 ,2,0,,0,1.,4.8,0.,4.8,,0,0.,4.8,0.,4.8
1979-07-27 09:02:48.770 ,2,0,,0,1.,4.8,0.,4.8,,0,0.,4.8,0.,4.8
1979-07-27 09:02:53.570 ,2,0,,0,3.,4.8,0.,4.8,,0,0.,4.8,0.,4.8
1979-07-27 09:02:58.370 ,2,0,,0,1.,4.8,0.,4.8,,0,0.,4.8,1.,4.8
1979-07-27 09:03:03.170 ,2,0,,0,0.,4.8,0.,4.8,,0,0.,4.8,0.,4.8
1979-07-27 09:03:07.970 ,2,0,,0,0.,4.8,0.,4.8,,0,0.,4.8,2.,4.8
1979-07-27 09:03:12.770 ,3,0,,0,0.,4.8,0.,4.8,,0,0.,4.8,0.,4.8
1979-07-27 09:03:17.570 ,3,0,,0,0.,4.8,0.,4.8,,0,0.,4.8,0.,4.8
1979-07-27 09:03:22.370 ,3,0,,0,0.,4.8,0.,4.8,,0,0.,4.8,0.,4.8
1979-07-27 09:03:27.170 ,3,0,,0,3.,4.8,0.,4.8,,0,0.,4.8,0.,4.8
1979-07-27 09:03:31.970 ,3,0,,0,3.,4.8,0.,4.8,,0,0.,4.8,0.,4.8
1979-07-27 09:03:36.770 ,3,0,,0,7.,4.8,0.,4.8,,0,0.,4.8,0.,4.8
1979-07-27 09:03:41.570 ,3,0,,0,2.,4.8,0.,4.8,,0,0.,4.8,0.,4.8
1979-07-27 09:03:46.370 ,3,0,,0,0.,4.8,0.,4.8,,0,0.,4.8,0.,4.8
1979-07-27 09:03:51.170 ,3,0,,0,0.,4.8,0.,4.8,,0,0.,4.8,0.,4.8
1979-07-27 09:03:55.970 ,3,0,,0,0.,4.8,0.,4.8,,0,0.,4.8,0.,4.8
1979-07-27 09:04:00.770 ,4,0,,0,0.,4.8,0.,4.8,,0,0.,4.8,0.,4.8
1979-07-27 09:04:05.570 ,4,0,,0,0.,4.8,0.,4.8,,0,0.,4.8,0.,4.8
1979-07-27 09:04:10.370 ,4,0,,0,2.,4.8,0.,4.8,,0,0.,4.8,0.,4.8
1979-07-27 09:04:15.170 ,4,0,,0,6.,4.8,0.,4.8,,0,0.,4.8,0.,4.8
1979-07-27 09:04:19.970 ,4,0,,0,3.,4.8,0.,4.8,,0,0.,4.8,0.,4.8
1979-07-27 09:04:24.770 ,4,0,,0,2.,4.8,0.,4.8,,0,0.,4.8,0.,4.8
1979-07-27 09:04:29.570 ,4,0,,0,1.,4.8,0.,4.8,,0,0.,4.8,0.,4.8
1979-07-27 09:04:34.370 ,4,0,,0,4.,4.8,0.,4.8,,0,0.,4.8,0.,4.8
1979-07-27 09:04:39.170 ,4,0,,0,0.,4.8,0.,4.8,,0,0.,4.8,0.,4.8
1979-07-27 09:04:43.970 ,4,0,,0,0.,4.8,0.,4.8,,0,0.,4.8,0.,4.8
1979-07-27 09:04:48.770 ,5,0,,0,1.,4.8,0.,4.8,,0,0.,4.8,0.,4.8
1979-07-27 09:04:53.570 ,5,0,,0,0.,4.8,0.,4.8,,0,0.,4.8,1.,4.8
1979-07-27 09:04:58.370 ,5,0,,0,2.,4.8,0.,4.8,,0,0.,4.8,1.,4.8
1979-07-27 09:05:03.170 ,5,0,,0,2.,4.8,0.,4.8,,0,0.,4.8,0.,4.8
1979-07-27 09:05:07.970 ,5,0,,0,4.,4.8,0.,4.8,,0,0.,4.8,0.,4.8
1979-07-27 09:05:12.770 ,5,0,,0,3.,4.8,0.,4.8,,0,0.,4.8,0.,4.8
1979-07-27 09:05:17.570 ,5,0,,0,4.,4.8,0.,4.8,,0,0.,4.8,1.,4.8
1979-07-27 09:05:22.370 ,5,0,,0,0.,4.8,0.,4.8,,0,0.,4.8,0.,4.8
1979-07-27 09:05:27.170 ,5,0,,0,0.,4.8,0.,4.8,,0,0.,4.8,0.,4.8
1979-07-27 09:05:31.970 ,5,0,,0,0.,4.8,0.,4.8,,0,0.,4.8,0.,4.8
1979-07-27 09:05:36.770 ,6,0,,0,0.,4.8,0.,4.8,,0,0.,4.8,1.,4.8
1979-07-27 09:05:41.570 ,6,0,,0,0.,4.8,0.,4.8,,0,0.,4.8,1.,4.8
1979-07-27 09:05:46.370 ,6,0,,0,1.,4.8,0.,4.8,,0,0.,4.8,3.,4.8
1979-07-27 09:05:51.170 ,6,0,,0,2.,4.8,0.,4.8,,0,0.,4.8,3.,4.8
1979-07-27 09:05:55.970 ,6,0,,0,8.,4.8,0.,4.8,,0,0.,4.8,0.,4.8
1979-07-27 09:06:00.770 ,6,0,,0,9.,4.8,1.,4.8,,0,0.,4.8,3.,4.8
1979-07-27 09:06:05.570 ,6,0,,0,4.,4.8,0.,4.8,,0,0.,4.8,1.,4.8
1979-07-27 09:06:10.370 ,6,0,,0,5.,4.8,0.,4.8,,0,0.,4.8,1.,4.8
1979-07-27 09:06:15.170 ,6,0,,0,0.,4.8,0.,4.8,,0,0.,4.8,4.,4.8
1979-07-27 09:06:19.970 ,6,0,,0,0.,4.8,0.,4.8,,0,0.,4.8,1.,4.8
1979-07-27 09:06:24.770 ,7,0,,0,0.,4.8,0.,4.8,,0,0.,4.8,0.,4.8
1979-07-27 09:06:29.570 ,7,0,,0,0.,4.8,0.,4.8,,0,0.,4.8,1.,4.8
1979-07-27 09:06:34.370 ,7,0,,0,2.,4.8,0.,4.8,,0,0.,4.8,0.,4.8
1979-07-27 09:06:39.170 ,7,0,,0,10.,4.8,0.,4.8,,0,0.,4.8,0.,4.8
1979-07-27 09:06:43.970 ,7,0,,0,6.,4.8,0.,4.8,,0,0.,4.8,0.,4.8
1979-07-27 09:06:48.770 ,7,0,,0,,0,,0,,0,,0,,0
1979-07-27 09:06:53.570 ,7,0,,0,,0,,0,,0,,0,,0
1979-07-27 09:06:58.370 ,7,0,,0,8.,4.8,0.,4.8,,0,0.,4.8,0.,4.8
1979-07-27 09:07:03.170 ,7,0,,0,0.,4.8,0.,4.8,,0,0.,4.8,0.,4.8
1979-07-27 09:07:07.970 ,7,0,,0,0.,4.8,0.,4.8,,0,0.,4.8,0.,4.8
1979-07-27 09:07:12.770 ,3,1,,0,0.,4.8,0.,4.8,,0,0.,4.8,1.,4.8
1979-07-27 09:07:17.570 ,3,1,,0,0.,4.8,0.,4.8,,0,1.,4.8,0.,4.8
1979-07-27 09:07:22.370 ,3,1,,0,1.,4.8,0.,4.8,,0,0.,4.8,0.,4.8
1979-07-27 09:07:27.170 ,3,1,,0,4.,4.8,0.,4.8,,0,0.,4.8,0.,4.8
1979-07-27 09:07:31.970 ,3,1,,0,2.,4.8,0.,4.8,,0,0.,4.8,0.,4.8
1979-07-27 09:07:36.770 ,0,1,,0,3.,4.8,0.,4.8,,0,0.,4.8,0.,4.8
1979-07-27 09:07:41.570 ,0,1,,0,7.,4.8,0.,4.8,,0,0.,4.8,1.,4.8
1979-07-27 09:07:46.370 ,0,1,,0,12.,4.8,0.,4.8,,0,0.,4.8,7.,4.8
1979-07-27 09:07:51.170 ,0,1,,0,0.,4.8,0.,4.8,,0,0.,4.8,7.,4.8
1979-07-27 09:07:55.970 ,0,1,,0,0.,4.8,0.,4.8,,0,0.,4.8,10.,4.8
1979-07-27 09:08:00.770 ,4,1,,0,0.,4.8,0.,4.8,,0,0.,4.8,4.,4.8
1979-07-27 09:08:05.570 ,4,1,,0,0.,4.8,0.,4.8,,0,0.,4.8,3.,4.8
1979-07-27 09:08:10.370 ,4,1,,0,0.,4.8,0.,4.8,,0,0.,4.8,0.,4.8
1979-07-27 09:08:15.170 ,4,1,,0,4.,4.8,0.,4.8,,0,0.,4.8,0.,4.8
1979-07-27 09:08:19.970 ,4,1,,0,2.,4.8,0.,4.8,,0,0.,4.8,0.,4.8
1979-07-27 09:08:24.770 ,7,1,,0,1.,4.8,0.,4.8,,0,0.,4.8,0.,4.8
1979-07-27 09:08:29.570 ,7,1,,0,7.,4.8,0.,4.8,,0,0.,4.8,1.,4.8
1979-07-27 09:08:34.370 ,7,1,,0,1.,4.8,0.,4.8,,0,0.,4.8,1.,4.8
1979-07-27 09:08:39.170 ,7,1,,0,0.,4.8,0.,4.8,,0,0.,4.8,0.,4.8
1979-07-27 09:08:43.970 ,7,1,,0,0.,4.8,0.,4.8,,0,0.,4.8,0.,4.8
1979-07-27 09:08:48.770 ,3,1,,0,0.,4.8,0.,4.8,,0,0.,4.8,0.,4.8
1979-07-27 09:08:53.570 ,3,1,,0,0.,4.8,0.,4.8,,0,0.,4.8,0.,4.8
1979-07-27 09:08:58.370 ,3,1,,0,1.,4.8,0.,4.8,,0,0.,4.8,0.,4.8
1979-07-27 09:09:03.170 ,3,1,,0,0.,4.8,0.,4.8,,0,0.,4.8,0.,4.8
1979-07-27 09:09:07.970 ,3,1,,0,1.,4.8,0.,4.8,,0,1.,4.8,0.,4.8
1979-07-27 09:09:12.770 ,0,1,,0,3.,4.8,0.,4.8,,0,0.,4.8,0.,4.8
1979-07-27 09:09:17.570 ,0,1,,0,5.,4.8,2.,4.8,,0,0.,4.8,1.,4.8
1979-07-27 09:09:22.370 ,0,1,,0,9.,4.8,0.,4.8,,0,0.,4.8,5.,4.8
1979-07-27 09:09:27.170 ,0,1,,0,0.,4.8,0.,4.8,,0,0.,4.8,13.,4.8
1979-07-27 09:09:31.970 ,0,1,,0,0.,4.8,1.,4.8,,0,0.,4.8,13.,4.8
1979-07-27 09:09:36.770 ,4,1,,0,0.,4.8,0.,4.8,,0,0.,4.8,6.,4.8
1979-07-27 09:09:41.570 ,4,1,,0,0.,4.8,0.,4.8,,0,0.,4.8,3.,4.8
1979-07-27 09:09:46.370 ,4,1,,0,0.,4.8,0.,4.8,,0,0.,4.8,0.,4.8
1979-07-27 09:09:51.170 ,4,1,,0,5.,4.8,0.,4.8,,0,0.,4.8,2.,4.8
1979-07-27 09:09:55.970 ,4,1,,0,1.,4.8,0.,4.8,,0,0.,4.8,0.,4.8
1979-07-27 09:10:00.770 ,7,1,,0,4.,4.8,1.,4.8,,0,0.,4.8,0.,4.8
1979-07-27 09:10:05.570 ,7,1,,0,5.,4.8,1.,4.8,,0,0.,4.8,0.,4.8
1979-07-27 09:10:10.370 ,7,1,,0,8.,4.8,0.,4.8,,0,0.,4.8,2.,4.8
1979-07-27 09:10:15.170 ,7,1,,0,0.,4.8,0.,4.8,,0,0.,4.8,0.,4.8
1979-07-27 09:10:19.970 ,7,1,,0,0.,4.8,0.,4.8,,0,0.,4.8,0.,4.8
1979-07-27 09:10:24.770 ,3,1,,0,0.,4.8,0.,4.8,,0,0.,4.8,1.,4.8
1979-07-27 09:10:29.570 ,3,1,,0,0.,4.8,0.,4.8,,0,0.,4.8,0.,4.8
1979-07-27 09:10:34.370 ,3,1,,0,1.,4.8,0.,4.8,,0,0.,4.8,0.,4.8
1979-07-27 09:10:39.170 ,3,1,,0,2.,4.8,0.,4.8,,0,0.,4.8,0.,4.8
1979-07-27 09:10:43.970 ,3,1,,0,5.,4.8,0.,4.8,,0,0.,4.8,0.,4.8
1979-07-27 09:10:48.770 ,0,1,,0,2.,4.8,0.,4.8,,0,0.,4.8,0.,4.8
1979-07-27 09:10:53.570 ,0,1,,0,8.,4.8,0.,4.8,,0,0.,4.8,3.,4.8
1979-07-27 09:10:58.370 ,0,1,,0,10.,4.8,2.,4.8,,0,0.,4.8,5.,4.8
1979-07-27 09:11:03.170 ,0,1,,0,0.,4.8,0.,4.8,,0,0.,4.8,13.,4.8
1979-07-27 09:11:07.970 ,0,1,,0,0.,4.8,0.,4.8,,0,0.,4.8,16.,4.8
1979-07-27 09:11:12.770 ,4,1,,0,0.,4.8,0.,4.8,,0,0.,4.8,2.,4.8
1979-07-27 09:11:17.570 ,4,1,,0,0.,4.8,0.,4.8,,0,0.,4.8,2.,4.8
1979-07-27 09:11:22.370 ,4,1,,0,0.,4.8,0.,4.8,,0,0.,4.8,0.,4.8
1979-07-27 09:11:27.170 ,4,1,,0,1.,4.8,0.,4.8,,0,0.,4.8,0.,4.8
1979-07-27 09:11:31.970 ,4,1,,0,5.,4.8,0.,4.8,,0,0.,4.8,0.,4.8
1979-07-27 09:11:36.770 ,7,1,,0,3.,4.8,0.,4.8,,0,0.,4.8,1.,4.8
1979-07-27 09:11:41.570 ,7,1,,0,4.,4.8,0.,4.8,,0,0.,4.8,1.,4.8
1979-07-27 09:11:46.370 ,7,1,,0,5.,4.8,1.,4.8,,0,0.,4.8,3.,4.8
1979-07-27 09:11:51.170 ,7,1,,0,0.,4.8,0.,4.8,,0,0.,4.8,0.,4.8
1979-07-27 09:11:55.970 ,7,1,,0,0.,4.8,0.,4.8,,0,0.,4.8,0.,4.8
1979-07-27 09:12:00.770 ,3,1,,0,0.,4.8,0.,4.8,,0,0.,4.8,2.,4.8
1979-07-27 09:12:05.570 ,3,1,,0,0.,4.8,0.,4.8,,0,0.,4.8,0.,4.8
1979-07-27 09:12:10.370 ,3,1,,0,0.,4.8,0.,4.8,,0,0.,4.8,0.,4.8
1979-07-27 09:12:15.170 ,3,1,,0,4.,4.8,0.,4.8,,0,0.,4.8,0.,4.8
1979-07-27 09:12:19.970 ,3,1,,0,6.,4.8,0.,4.8,,0,0.,4.8,0.,4.8
1979-07-27 09:12:24.770 ,0,1,,0,2.,4.8,0.,4.8,,0,0.,4.8,1.,4.8
1979-07-27 09:12:29.570 ,0,1,,0,3.,4.8,0.,4.8,,0,0.,4.8,1.,4.8
1979-07-27 09:12:34.370 ,0,1,,0,11.,4.8,1.,4.8,,0,0.,4.8,9.,4.8
1979-07-27 09:12:39.170 ,0,1,,0,0.,4.8,0.,4.8,,0,0.,4.8,10.,4.8
1979-07-27 09:12:43.970 ,0,1,,0,0.,4.8,0.,4.8,,0,0.,4.8,11.,4.8
1979-07-27 09:12:48.770 ,4,1,,0,0.,4.8,0.,4.8,,0,0.,4.8,7.,4.8
1979-07-27 09:12:53.570 ,4,1,,0,0.,4.8,0.,4.8,,0,0.,4.8,2.,4.8
1979-07-27 09:12:58.370 ,4,1,,0,0.,4.8,0.,4.8,,0,0.,4.8,0.,4.8
1979-07-27 09:13:03.170 ,4,1,,0,3.,4.8,0.,4.8,,0,0.,4.8,0.,4.8
1979-07-27 09:13:07.970 ,4,1,,0,3.,4.8,0.,4.8,,0,0.,4.8,0.,4.8
1979-07-27 09:13:12.770 ,7,1,,0,5.,4.8,0.,4.8,,0,0.,4.8,0.,4.8
1979-07-27 09:13:17.570 ,7,1,,0,6.,4.8,1.,4.8,,0,0.,4.8,0.,4.8
1979-07-27 09:13:22.370 ,7,1,,0,10.,4.8,0.,4.8,,0,0.,4.8,2.,4.8
1979-07-27 09:13:27.170 ,7,1,,0,0.,4.8,0.,4.8,,0,0.,4.8,0.,4.8
1979-07-27 09:13:31.970 ,7,1,,0,0.,4.8,0.,4.8,,0,0.,4.8,0.,4.8
1979-07-27 09:13:36.770 ,3,1,,0,0.,4.8,0.,4.8,,0,0.,4.8,0.,4.8
1979-07-27 09:13:41.570 ,3,1,,0,0.,4.8,0.,4.8,,0,0.,4.8,3.,4.8
1979-07-27 09:13:46.370 ,3,1,,0,0.,4.8,0.,4.8,,0,0.,4.8,0.,4.8
1979-07-27 09:13:51.170 ,3,1,,0,0.,4.8,0.,4.8,,0,0.,4.8,0.,4.8
1979-07-27 09:13:55.970 ,3,1,,0,1.,4.8,0.,4.8,,0,0.,4.8,0.,4.8
1979-07-27 09:14:00.770 ,0,1,,0,1.,4.8,0.,4.8,,0,0.,4.8,0.,4.8
1979-07-27 09:14:05.570 ,0,1,,0,4.,4.8,0.,4.8,,0,0.,4.8,0.,4.8
1979-07-27 09:14:10.370 ,0,1,,0,10.,4.8,1.,4.8,,0,0.,4.8,3.,4.8
1979-07-27 09:14:15.170 ,0,1,,0,0.,4.8,0.,4.8,,0,0.,4.8,10.,4.8
1979-07-27 09:14:19.970 ,0,1,,0,0.,4.8,0.,4.8,,0,0.,4.8,10.,4.8
1979-07-27 09:14:24.770 ,4,1,,0,0.,4.8,0.,4.8,,0,0.,4.8,5.,4.8
1979-07-27 09:14:29.570 ,4,1,,0,0.,4.8,0.,4.8,,0,0.,4.8,1.,4.8
1979-07-27 09:14:34.370 ,4,1,,0,1.,4.8,0.,4.8,,0,0.,4.8,2.,4.8
1979-07-27 09:14:39.170 ,4,1,,0,2.,4.8,0.,4.8,,0,0.,4.8,0.,4.8
1979-07-27 09:14:43.970 ,4,1,,0,7.,4.8,0.,4.8,,0,0.,4.8,0.,4.8
1979-07-27 09:14:48.770 ,7,1,,0,2.,4.8,0.,4.8,,0,0.,4.8,0.,4.8
1979-07-27 09:14:53.570 ,7,1,,0,9.,4.8,0.,4.8,,0,0.,4.8,0.,4.8
1979-07-27 09:14:58.370 ,7,1,,0,5.,4.8,0.,4.8,,0,0.,4.8,5.,4.8
1979-07-27 09:15:03.170 ,7,1,,0,0.,4.8,0.,4.8,,0,0.,4.8,0.,4.8
1979-07-27 09:15:07.970 ,7,1,,0,0.,4.8,0.,4.8,,0,0.,4.8,0.,4.8
1979-07-27 09:15:12.770 ,3,1,,0,0.,4.8,0.,4.8,,0,0.,4.8,1.,4.8
1979-07-27 09:15:17.570 ,3,1,,0,0.,4.8,0.,4.8,,0,0.,4.8,0.,4.8
1979-07-27 09:15:22.370 ,3,1,,0,0.,4.8,0.,4.8,,0,0.,4.8,0.,4.8
1979-07-27 09:15:27.170 ,3,1,,0,4.,4.8,0.,4.8,,0,0.,4.8,0.,4.8
1979-07-27 09:15:31.970 ,3,1,,0,1.,4.8,0.,4.8,,0,0.,4.8,0.,4.8
1979-07-27 09:15:36.770 ,0,1,,0,2.,4.8,0.,4.8,,0,0.,4.8,0.,4.8
1979-07-27 09:15:41.570 ,0,1,,0,8.,4.8,2.,4.8,,0,0.,4.8,2.,4.8
1979-07-27 09:15:46.370 ,0,1,,0,12.,4.8,1.,4.8,,0,0.,4.8,1.,4.8
1979-07-27 09:15:51.170 ,0,1,,0,0.,4.8,0.,4.8,,0,0.,4.8,15.,4.8
1979-07-27 09:15:55.970 ,0,1,,0,0.,4.8,0.,4.8,,0,0.,4.8,9.,4.8
1979-07-27 09:16:00.770 ,4,1,,0,0.,4.8,0.,4.8,,0,0.,4.8,6.,4.8
1979-07-27 09:16:05.570 ,4,1,,0,0.,4.8,0.,4.8,,0,0.,4.8,1.,4.8
1979-07-27 09:16:10.370 ,4,1,,0,2.,4.8,1.,4.8,,0,0.,4.8,0.,4.8
1979-07-27 09:16:15.170 ,4,1,,0,6.,4.8,0.,4.8,,0,0.,4.8,0.,4.8
1979-07-27 09:16:19.970 ,4,1,,0,2.,4.8,0.,4.8,,0,0.,4.8,2.,4.8
1979-07-27 09:16:24.770 ,7,1,,0,4.,4.8,0.,4.8,,0,0.,4.8,0.,4.8
1979-07-27 09:16:29.570 ,7,1,,0,3.,4.8,1.,4.8,,0,0.,4.8,0.,4.8
1979-07-27 09:16:34.370 ,7,1,,0,6.,4.8,0.,4.8,,0,0.,4.8,1.,4.8
1979-07-27 09:16:39.170 ,7,1,,0,0.,4.8,0.,4.8,,0,0.,4.8,0.,4.8
1979-07-27 09:16:43.970 ,7,1,,0,0.,4.8,0.,4.8,,0,0.,4.8,0.,4.8
1979-07-27 09:16:48.770 ,3,1,,0,0.,4.8,0.,4.8,,0,0.,4.8,0.,4.8
1979-07-27 09:16:53.570 ,3,1,,0,0.,4.8,0.,4.8,,0,0.,4.8,1.,4.8
1979-07-27 09:16:58.370 ,3,1,,0,2.,4.8,0.,4.8,,0,0.,4.8,0.,4.8
1979-07-27 09:17:03.170 ,3,1,,0,1.,4.8,0.,4.8,,0,0.,4.8,0.,4.8
1979-07-27 09:17:07.970 ,3,1,,0,2.,4.8,0.,4.8,,0,0.,4.8,0.,4.8
1979-07-27 09:17:12.770 ,0,1,,0,3.,4.8,0.,4.8,,0,0.,4.8,0.,4.8
1979-07-27 09:17:17.570 ,0,1,,0,3.,4.8,0.,4.8,,0,0.,4.8,0.,4.8
1979-07-27 09:17:22.370 ,0,1,,0,5.,4.8,0.,4.8,,0,0.,4.8,4.,4.8
1979-07-27 09:17:27.170 ,0,1,,0,0.,4.8,0.,4.8,,0,0.,4.8,10.,4.8
1979-07-27 09:17:31.970 ,0,1,,0,0.,4.8,0.,4.8,,0,0.,4.8,14.,4.8
1979-07-27 09:17:36.770 ,0,0,,0,0.,4.8,0.,4.8,,0,0.,4.8,6.,4.8
1979-07-27 09:17:41.570 ,0,0,,0,0.,4.8,0.,4.8,,0,0.,4.8,3.,4.8
1979-07-27 09:17:46.370 ,0,0,,0,0.,4.8,0.,4.8,,0,0.,4.8,0.,4.8
1979-07-27 09:17:51.170 ,0,0,,0,5.,4.8,0.,4.8,,0,0.,4.8,0.,4.8
1979-07-27 09:17:55.970 ,0,0,,0,2.,4.8,0.,4.8,,0,0.,4.8,0.,4.8
1979-07-27 09:18:00.770 ,0,0,,0,6.,4.8,0.,4.8,,0,0.,4.8,0.,4.8
1979-07-27 09:18:05.570 ,0,0,,0,2.,4.8,0.,4.8,,0,0.,4.8,1.,4.8
1979-07-27 09:18:10.370 ,0,0,,0,2.,4.8,0.,4.8,,0,0.,4.8,2.,4.8
1979-07-27 09:18:15.170 ,0,0,,0,0.,4.8,0.,4.8,,0,0.,4.8,0.,4.8
1979-07-27 09:18:19.970 ,0,0,,0,0.,4.8,0.,4.8,,0,0.,4.8,0.,4.8
1979-07-27 09:18:24.770 ,5,0,,0,0.,4.8,0.,4.8,,0,0.,4.8,3.,4.8
1979-07-27 09:18:29.570 ,5,0,,0,0.,4.8,0.,4.8,,0,0.,4.8,0.,4.8
1979-07-27 09:18:34.370 ,5,0,,0,0.,4.8,0.,4.8,,0,0.,4.8,0.,4.8
1979-07-27 09:18:39.170 ,5,0,,0,5.,4.8,0.,4.8,,0,0.,4.8,0.,4.8
1979-07-27 09:18:43.970 ,5,0,,0,7.,4.8,0.,4.8,,0,0.,4.8,0.,4.8
1979-07-27 09:18:48.770 ,5,0,,0,1.,4.8,0.,4.8,,0,0.,4.8,0.,4.8
1979-07-27 09:18:53.570 ,5,0,,0,8.,4.8,0.,4.8,,0,0.,4.8,0.,4.8
1979-07-27 09:18:58.370 ,5,0,,0,2.,4.8,0.,4.8,,0,0.,4.8,1.,4.8
1979-07-27 09:19:03.170 ,5,0,,0,0.,4.8,0.,4.8,,0,0.,4.8,0.,4.8
1979-07-27 09:19:07.970 ,5,0,,0,0.,4.8,0.,4.8,,0,0.,4.8,0.,4.8
1979-07-27 09:19:12.770 ,4,0,,0,0.,4.8,0.,4.8,,0,0.,4.8,0.,4.8
1979-07-27 09:19:17.570 ,4,0,,0,0.,4.8,0.,4.8,,0,0.,4.8,0.,4.8
1979-07-27 09:19:22.370 ,4,0,,0,0.,4.8,0.,4.8,,0,0.,4.8,1.,4.8
1979-07-27 09:19:27.170 ,4,0,,0,2.,4.8,0.,4.8,,0,0.,4.8,0.,4.8
1979-07-27 09:19:31.970 ,4,0,,0,1.,4.8,0.,4.8,,0,0.,4.8,0.,4.8
1979-07-27 09:19:36.770 ,4,0,,0,4.,4.8,0.,4.8,,0,0.,4.8,0.,4.8
1979-07-27 09:19:41.570 ,4,0,,0,5.,4.8,0.,4.8,,0,0.,4.8,0.,4.8
1979-07-27 09:19:46.370 ,4,0,,0,1.,4.8,0.,4.8,,0,0.,4.8,0.,4.8
1979-07-27 09:19:51.170 ,4,0,,0,0.,4.8,0.,4.8,,0,0.,4.8,1.,4.8
1979-07-27 09:19:55.970 ,4,0,,0,0.,4.8,0.,4.8,,0,0.,4.8,0.,4.8
1979-07-27 09:20:00.770 ,3,0,,0,0.,4.8,0.,4.8,,0,0.,4.8,1.,4.8
1979-07-27 09:20:05.570 ,3,0,,0,0.,4.8,0.,4.8,,0,0.,4.8,0.,4.8
1979-07-27 09:20:10.370 ,3,0,,0,0.,4.8,0.,4.8,,0,0.,4.8,0.,4.8
1979-07-27 09:20:15.170 ,3,0,,0,3.,4.8,0.,4.8,,0,0.,4.8,0.,4.8
1979-07-27 09:20:19.970 ,3,0,,0,2.,4.8,0.,4.8,,0,0.,4.8,1.,4.8
1979-07-27 09:20:24.770 ,3,0,,0,4.,4.8,0.,4.8,,0,0.,4.8,0.,4.8
1979-07-27 09:20:29.570 ,3,0,,0,5.,4.8,0.,4.8,,0,0.,4.8,0.,4.8
1979-07-27 09:20:34.370 ,3,0,,0,2.,4.8,0.,4.8,,0,0.,4.8,0.,4.8
1979-07-27 09:20:39.170 ,3,0,,0,0.,4.8,0.,4.8,,0,0.,4.8,0.,4.8
1979-07-27 09:20:43.970 ,3,0,,0,0.,4.8,0.,4.8,,0,0.,4.8,0.,4.8
1979-07-27 09:20:48.770 ,2,0,,0,0.,4.8,0.,4.8,,0,0.,4.8,0.,4.8
1979-07-27 09:20:53.570 ,2,0,,0,0.,4.8,0.,4.8,,0,0.,4.8,0.,4.8
1979-07-27 09:20:58.370 ,2,0,,0,1.,4.8,0.,4.8,,0,0.,4.8,1.,4.8
1979-07-27 09:21:03.170 ,2,0,,0,5.,4.8,0.,4.8,,0,0.,4.8,1.,4.8
1979-07-27 09:21:07.970 ,2,0,,0,3.,4.8,0.,4.8,,0,0.,4.8,0.,4.8
1979-07-27 09:21:12.770 ,2,0,,0,4.,4.8,0.,4.8,,0,0.,4.8,0.,4.8
1979-07-27 09:21:17.570 ,2,0,,0,1.,4.8,0.,4.8,,0,0.,4.8,0.,4.8
1979-07-27 09:21:22.370 ,2,0,,0,3.,4.8,0.,4.8,,0,0.,4.8,0.,4.8
1979-07-27 09:21:27.170 ,2,0,,0,0.,4.8,0.,4.8,,0,0.,4.8,0.,4.8
1979-07-27 09:21:31.970 ,2,0,,0,0.,4.8,0.,4.8,,0,0.,4.8,0.,4.8
1979-07-27 09:21:36.770 ,1,0,,0,0.,4.8,0.,4.8,,0,0.,4.8,0.,4.8
1979-07-27 09:21:41.570 ,1,0,,0,0.,4.8,0.,4.8,,0,0.,4.8,1.,4.8
1979-07-27 09:21:46.370 ,1,0,,0,2.,4.8,0.,4.8,,0,0.,4.8,6.,4.8
1979-07-27 09:21:51.170 ,1,0,,0,10.,4.8,2.,4.8,,0,0.,4.8,2.,4.8
1979-07-27 09:21:55.970 ,1,0,,0,10.,4.8,1.,4.8,,0,0.,4.8,2.,4.8
1979-07-27 09:22:00.770 ,1,0,,0,15.,4.8,3.,4.8,,0,0.,4.8,2.,4.8
1979-07-27 09:22:05.570 ,1,0,,0,12.,4.8,1.,4.8,,0,0.,4.8,7.,4.8
1979-07-27 09:22:10.370 ,1,0,,0,11.,4.8,0.,4.8,,0,0.,4.8,5.,4.8
1979-07-27 09:22:15.170 ,1,0,,0,0.,4.8,0.,4.8,,0,0.,4.8,3.,4.8
1979-07-27 09:22:19.970 ,1,0,,0,0.,4.8,0.,4.8,,0,0.,4.8,7.,4.8
1979-07-27 09:22:24.770 ,0,0,,0,0.,4.8,0.,4.8,,0,0.,4.8,2.,4.8
1979-07-27 09:22:29.570 ,0,0,,0,0.,4.8,0.,4.8,,0,0.,4.8,5.,4.8
1979-07-27 09:22:34.370 ,0,0,,0,0.,4.8,0.,4.8,,0,0.,4.8,6.,4.8
1979-07-27 09:22:39.170 ,0,0,,0,24.,4.8,2.,4.8,,0,0.,4.8,8.,4.8
1979-07-27 09:22:43.970 ,0,0,,0,30.,4.8,2.,4.8,,0,0.,4.8,6.,4.8
1979-07-27 09:22:48.770 ,0,0,,0,28.,4.8,2.,4.8,,0,0.,4.8,12.,4.8
1979-07-27 09:22:53.570 ,0,0,,0,22.,4.8,0.,4.8,,0,0.,4.8,8.,4.8
1979-07-27 09:22:58.370 ,0,0,,0,16.,4.8,0.,4.8,,0,0.,4.8,9.,4.8
1979-07-27 09:23:03.170 ,0,0,,0,0.,4.8,0.,4.8,,0,0.,4.8,14.,4.8
1979-07-27 09:23:07.970 ,0,0,,0,0.,4.8,0.,4.8,,0,0.,4.8,9.,4.8
1979-07-27 09:23:12.770 ,0,0,,0,0.,4.8,0.,4.8,,0,0.,4.8,8.,4.8
1979-07-27 09:23:17.570 ,0,0,,0,0.,4.8,0.,4.8,,0,0.,4.8,8.,4.8
1979-07-27 09:23:22.370 ,0,0,,0,6.,4.8,2.,4.8,,0,0.,4.8,12.,4.8
1979-07-27 09:23:27.170 ,0,0,,0,20.,4.8,0.,4.8,,0,0.,4.8,5.,4.8
1979-07-27 09:23:31.970 ,0,0,,0,23.,4.8,2.,4.8,,0,0.,4.8,6.,4.8
1979-07-27 09:23:36.770 ,0,0,,0,13.,4.8,0.,4.8,,0,0.,4.8,11.,4.8
1979-07-27 09:23:41.570 ,0,0,,0,17.,4.8,1.,4.8,,0,0.,4.8,7.,4.8
1979-07-27 09:23:46.370 ,0,0,,0,17.,4.8,2.,4.8,,0,0.,4.8,12.,4.8
1979-07-27 09:23:51.170 ,0,0,,0,0.,4.8,0.,4.8,,0,0.,4.8,11.,4.8
1979-07-27 09:23:55.970 ,0,0,,0,0.,4.8,0.,4.8,,0,0.,4.8,6.,4.8
1979-07-27 09:24:00.770 ,1,0,,0,0.,4.8,0.,4.8,,0,0.,4.8,8.,4.8
1979-07-27 09:24:05.570 ,1,0,,0,0.,4.8,0.,4.8,,0,0.,4.8,8.,4.8
1979-07-27 09:24:10.370 ,1,0,,0,1.,4.8,0.,4.8,,0,0.,4.8,5.,4.8
1979-07-27 09:24:15.170 ,1,0,,0,14.,4.8,0.,4.8,,0,0.,4.8,4.,4.8
1979-07-27 09:24:19.970 ,1,0,,0,19.,4.8,7.,4.8,,0,0.,4.8,5.,4.8
1979-07-27 09:24:24.770 ,1,0,,0,25.,4.8,1.,4.8,,0,0.,4.8,3.,4.8
1979-07-27 09:24:29.570 ,1,0,,0,15.,4.8,1.,4.8,,0,0.,4.8,1.,4.8
1979-07-27 09:24:34.370 ,1,0,,0,7.,4.8,2.,4.8,,0,0.,4.8,6.,4.8
1979-07-27 09:24:39.170 ,1,0,,0,0.,4.8,0.,4.8,,0,0.,4.8,3.,4.8
1979-07-27 09:24:43.970 ,1,0,,0,0.,4.8,0.,4.8,,0,0.,4.8,4.,4.8
1979-07-27 09:24:48.770 ,2,0,,0,0.,4.8,0.,4.8,,0,0.,4.8,4.,4.8
1979-07-27 09:24:53.570 ,2,0,,0,0.,4.8,0.,4.8,,0,0.,4.8,6.,4.8
1979-07-27 09:24:58.370 ,2,0,,0,0.,4.8,0.,4.8,,0,0.,4.8,0.,4.8
1979-07-27 09:25:03.170 ,2,0,,0,2.,4.8,1.,4.8,,0,0.,4.8,1.,4.8
1979-07-27 09:25:07.970 ,2,0,,0,4.,4.8,0.,4.8,,0,0.,4.8,1.,4.8
1979-07-27 09:25:12.770 ,2,0,,0,4.,4.8,0.,4.8,,0,0.,4.8,0.,4.8
1979-07-27 09:25:17.570 ,2,0,,0,3.,4.8,0.,4.8,,0,0.,4.8,0.,4.8
1979-07-27 09:25:22.370 ,2,0,,0,2.,4.8,1.,4.8,,0,0.,4.8,0.,4.8
1979-07-27 09:25:27.170 ,2,0,,0,0.,4.8,0.,4.8,,0,0.,4.8,0.,4.8
1979-07-27 09:25:31.970 ,2,0,,0,0.,4.8,0.,4.8,,0,0.,4.8,0.,4.8
1979-07-27 09:25:36.770 ,3,0,,0,0.,4.8,0.,4.8,,0,0.,4.8,0.,4.8
1979-07-27 09:25:41.570 ,3,0,,0,0.,4.8,0.,4.8,,0,0.,4.8,0.,4.8
1979-07-27 09:25:46.370 ,3,0,,0,0.,4.8,0.,4.8,,0,0.,4.8,0.,4.8
1979-07-27 09:25:51.170 ,3,0,,0,4.,4.8,0.,4.8,,0,0.,4.8,0.,4.8
1979-07-27 09:25:55.970 ,3,0,,0,4.,4.8,0.,4.8,,0,0.,4.8,0.,4.8
1979-07-27 09:26:00.770 ,3,0,,0,2.,4.8,0.,4.8,,0,0.,4.8,1.,4.8
1979-07-27 09:26:05.570 ,3,0,,0,3.,4.8,0.,4.8,,0,0.,4.8,0.,4.8
1979-07-27 09:26:10.370 ,3,0,,0,3.,4.8,0.,4.8,,0,0.,4.8,0.,4.8
1979-07-27 09:26:15.170 ,3,0,,0,1.,4.8,0.,4.8,,0,0.,4.8,0.,4.8
1979-07-27 09:26:19.970 ,3,0,,0,0.,4.8,0.,4.8,,0,0.,4.8,0.,4.8
1979-07-27 09:26:24.770 ,4,0,,0,0.,4.8,0.,4.8,,0,0.,4.8,1.,4.8
1979-07-27 09:26:29.570 ,4,0,,0,0.,4.8,0.,4.8,,0,0.,4.8,0.,4.8
1979-07-27 09:26:34.370 ,4,0,,0,1.,4.8,0.,4.8,,0,0.,4.8,0.,4.8
1979-07-27 09:26:39.170 ,4,0,,0,2.,4.8,0.,4.8,,0,0.,4.8,0.,4.8
1979-07-27 09:26:43.970 ,4,0,,0,3.,4.8,0.,4.8,,0,0.,4.8,0.,4.8
1979-07-27 09:26:48.770 ,4,0,,0,2.,4.8,0.,4.8,,0,0.,4.8,0.,4.8
1979-07-27 09:26:53.570 ,4,0,,0,6.,4.8,0.,4.8,,0,0.,4.8,0.,4.8
1979-07-27 09:26:58.370 ,4,0,,0,3.,4.8,0.,4.8,,0,0.,4.8,0.,4.8
1979-07-27 09:27:03.170 ,4,0,,0,0.,4.8,0.,4.8,,0,0.,4.8,1.,4.8
1979-07-27 09:27:07.970 ,4,0,,0,0.,4.8,0.,4.8,,0,0.,4.8,0.,4.8
1979-07-27 09:27:12.770 ,5,0,,0,0.,4.8,0.,4.8,,0,0.,4.8,0.,4.8
1979-07-27 09:27:17.570 ,5,0,,0,0.,4.8,0.,4.8,,0,0.,4.8,0.,4.8
1979-07-27 09:27:22.370 ,5,0,,0,0.,4.8,0.,4.8,,0,0.,4.8,0.,4.8
1979-07-27 09:27:27.170 ,5,0,,0,7.,4.8,0.,4.8,,0,0.,4.8,0.,4.8
1979-07-27 09:27:31.970 ,5,0,,0,8.,4.8,0.,4.8,,0,0.,4.8,1.,4.8
1979-07-27 09:27:36.770 ,5,0,,0,2.,4.8,0.,4.8,,0,0.,4.8,0.,4.8
1979-07-27 09:27:41.570 ,5,0,,0,5.,4.8,0.,4.8,,0,0.,4.8,1.,4.8
1979-07-27 09:27:46.370 ,5,0,,0,4.,4.8,0.,4.8,,0,0.,4.8,1.,4.8
1979-07-27 09:27:51.170 ,5,0,,0,0.,4.8,0.,4.8,,0,0.,4.8,0.,4.8
1979-07-27 09:27:55.970 ,5,0,,0,0.,4.8,0.,4.8,,0,0.,4.8,0.,4.8
1979-07-27 09:28:00.770 ,6,0,,0,0.,4.8,0.,4.8,,0,0.,4.8,0.,4.8
1979-07-27 09:28:05.570 ,6,0,,0,0.,4.8,0.,4.8,,0,0.,4.8,2.,4.8
1979-07-27 09:28:10.370 ,6,0,,0,1.,4.8,0.,4.8,,0,0.,4.8,0.,4.8
1979-07-27 09:28:15.170 ,6,0,,0,5.,4.8,0.,4.8,,0,0.,4.8,2.,4.8
1979-07-27 09:28:19.970 ,6,0,,0,6.,4.8,0.,4.8,,0,1.,4.8,3.,4.8
1979-07-27 09:28:24.770 ,6,0,,0,7.,4.8,0.,4.8,,0,0.,4.8,0.,4.8
1979-07-27 09:28:29.570 ,6,0,,0,5.,4.8,0.,4.8,,0,0.,4.8,2.,4.8
1979-07-27 09:28:34.370 ,6,0,,0,9.,4.8,0.,4.8,,0,0.,4.8,1.,4.8
1979-07-27 09:28:39.170 ,6,0,,0,0.,4.8,0.,4.8,,0,0.,4.8,1.,4.8
1979-07-27 09:28:43.970 ,6,0,,0,0.,4.8,0.,4.8,,0,0.,4.8,3.,4.8
1979-07-27 09:28:48.770 ,7,0,,0,0.,4.8,0.,4.8,,0,0.,4.8,4.,4.8
1979-07-27 09:28:53.570 ,7,0,,0,0.,4.8,0.,4.8,,0,0.,4.8,1.,4.8
1979-07-27 09:28:58.370 ,7,0,,0,,0,,0,,0,,0,,0
1979-07-27 09:29:03.170 ,7,0,,0,13.,4.8,0.,4.8,,0,0.,4.8,0.,4.8
1979-07-27 09:29:07.970 ,7,0,,0,12.,4.8,0.,4.8,,0,0.,4.8,0.,4.8
1979-07-27 09:29:12.770 ,7,0,,0,7.,4.8,0.,4.8,,0,0.,4.8,0.,4.8
1979-07-27 09:29:17.570 ,7,0,,0,10.,4.8,0.,4.8,,0,0.,4.8,0.,4.8
1979-07-27 09:29:22.370 ,7,0,,0,7.,4.8,0.,4.8,,0,0.,4.8,0.,4.8
1979-07-27 09:29:27.170 ,7,0,,0,0.,4.8,0.,4.8,,0,0.,4.8,0.,4.8
1979-07-27 09:29:31.970 ,7,0,,0,0.,4.8,0.,4.8,,0,0.,4.8,0.,4.8
1979-07-27 09:29:36.770 ,7,0,,0,0.,4.8,0.,4.8,,0,0.,4.8,0.,4.8
1979-07-27 09:29:41.570 ,7,0,,0,0.,4.8,0.,4.8,,0,0.,4.8,0.,4.8
1979-07-27 09:29:46.370 ,7,0,,0,2.,4.8,0.,4.8,,0,0.,4.8,0.,4.8
1979-07-27 09:29:51.170 ,7,0,,0,17.,4.8,0.,4.8,,0,0.,4.8,0.,4.8
1979-07-27 09:29:55.970 ,7,0,,0,8.,4.8,0.,4.8,,0,0.,4.8,0.,4.8
1979-07-27 09:30:00.770 ,7,0,,0,7.,4.8,0.,4.8,,0,0.,4.8,0.,4.8
1979-07-27 09:30:05.570 ,7,0,,0,14.,4.8,0.,4.8,,0,0.,4.8,1.,4.8
1979-07-27 09:30:10.370 ,7,0,,0,9.,4.8,0.,4.8,,0,0.,4.8,0.,4.8